Location: Demmingen
(48.6757°N, 10.4375°E)
Time: 05:06:13
(UTC+00:00)

SL-16 R/B - Pass Details

Date: 09 August 2024
Orbit: 842 x 845 km, 71.0° (Epoch: 16 September)

Event Time Altitude Azimuth Distance (km) Brightness Sun altitude
Rises 02:54:04 0° 286° (WNW) 3,405 5.0 -10.5°
Reaches altitude 10° 02:59:16 10° 327° (NNW) 2,474 4.7 -9.9°
Maximum altitude 03:00:12 10° 336° (NNW) 2,448 4.8 -9.7°
Drops below altitude 10° 03:01:09 10° 346° (NNW) 2,476 5.0 -9.6°
Sets 03:06:22 0° 26° (NNE) 3,415 6.6 -8.9°
